Year,Month,Day,Hour,Minute,Value (Times are PST for temperature in C)
2017,11,15,00,00,3.00
2017,11,15,00,01,2.90
2017,11,15,00,02,2.90
2017,11,15,00,03,3.00
2017,11,15,00,04,3.00
2017,11,15,00,05,3.00
2017,11,15,00,06,3.00
2017,11,15,00,07,3.00
2017,11,15,00,08,3.00
2017,11,15,00,09,3.00
2017,11,15,00,10,3.00
2017,11,15,00,11,3.00
2017,11,15,00,12,3.00
2017,11,15,00,13,3.00
2017,11,15,00,14,3.00
2017,11,15,00,15,3.00
2017,11,15,00,16,3.00
2017,11,15,00,17,3.00
2017,11,15,00,18,3.00
2017,11,15,00,19,3.00
2017,11,15,03,25,3.80
2017,11,15,03,26,3.80
2017,11,15,03,27,3.80
2017,11,15,03,28,3.80
2017,11,15,03,29,3.80
2017,11,15,03,30,3.80
2017,11,15,03,31,3.80
2017,11,15,03,32,3.80
2017,11,15,03,33,3.80
2017,11,15,03,34,3.80
2017,11,15,03,35,3.80
2017,11,15,03,36,3.80
2017,11,15,03,37,3.80
2017,11,15,03,38,3.80
2017,11,15,03,39,3.80
2017,11,15,03,40,3.80
2017,11,15,03,41,3.70
2017,11,15,03,42,3.70
2017,11,15,03,43,3.70
2017,11,15,03,44,3.70
2017,11,15,03,45,3.70
2017,11,15,03,46,3.70
2017,11,15,03,47,3.70
2017,11,15,03,48,3.70
2017,11,15,03,49,3.70
2017,11,15,03,50,3.70
2017,11,15,03,51,3.70
2017,11,15,03,52,3.70
2017,11,15,03,53,3.70
2017,11,15,03,54,3.70
2017,11,15,03,55,3.70
2017,11,15,03,56,3.70
2017,11,15,03,57,3.70
2017,11,15,03,58,3.70
2017,11,15,03,59,3.60
2017,11,15,04,00,3.60
2017,11,15,04,01,3.60
2017,11,15,04,02,3.60
2017,11,15,04,03,3.60
2017,11,15,04,04,3.60
2017,11,15,04,05,3.60
2017,11,15,04,06,3.60
2017,11,15,04,07,3.50
2017,11,15,04,08,3.50
2017,11,15,04,09,3.50
2017,11,15,04,10,3.50
2017,11,15,04,11,3.50
2017,11,15,04,12,3.50
2017,11,15,04,13,3.50
2017,11,15,04,14,3.60
2017,11,15,04,15,3.60
2017,11,15,04,16,3.60
2017,11,15,04,17,3.60
2017,11,15,04,18,3.60
2017,11,15,04,19,3.60
2017,11,15,04,20,3.60
2017,11,15,04,21,3.70
2017,11,15,04,22,3.70
2017,11,15,04,23,3.70
2017,11,15,04,24,3.70
2017,11,15,04,25,3.60
2017,11,15,04,26,3.60
2017,11,15,04,27,3.60
2017,11,15,04,28,3.60
2017,11,15,04,29,3.60
2017,11,15,04,30,3.60
2017,11,15,04,31,3.60
2017,11,15,04,32,3.60
2017,11,15,04,33,3.60
2017,11,15,04,34,3.50
2017,11,15,04,35,3.50
2017,11,15,04,36,3.50
2017,11,15,04,37,3.50
2017,11,15,04,38,3.40
2017,11,15,04,39,3.40
2017,11,15,04,40,3.40
2017,11,15,04,41,3.40
2017,11,15,04,42,3.30
2017,11,15,04,43,3.30
2017,11,15,04,44,3.30
2017,11,15,04,45,3.30
2017,11,15,04,46,3.30
2017,11,15,04,47,3.30
2017,11,15,04,48,3.30
2017,11,15,04,49,3.30
2017,11,15,04,50,3.30
2017,11,15,04,51,3.30
2017,11,15,04,52,3.30
2017,11,15,04,53,3.30
2017,11,15,04,54,3.30
2017,11,15,04,55,3.30
2017,11,15,04,56,3.30
2017,11,15,04,57,3.30
2017,11,15,04,58,3.30
2017,11,15,04,59,3.30
2017,11,15,05,00,3.20
2017,11,15,05,01,3.20
2017,11,15,05,02,3.20
2017,11,15,05,03,3.20
2017,11,15,05,04,3.20
2017,11,15,05,05,3.20
2017,11,15,05,06,3.20
2017,11,15,05,07,3.20
2017,11,15,05,08,3.20
2017,11,15,05,09,3.20
2017,11,15,05,10,3.20
2017,11,15,05,11,3.20
2017,11,15,05,12,3.30
2017,11,15,05,13,3.30
2017,11,15,05,14,3.30
2017,11,15,05,15,3.30
2017,11,15,05,16,3.30
2017,11,15,05,17,3.30
2017,11,15,05,18,3.30
2017,11,15,05,19,3.30
2017,11,15,05,20,3.30
2017,11,15,05,21,3.30
2017,11,15,05,22,3.30
2017,11,15,05,23,3.30
2017,11,15,05,24,3.20
2017,11,15,05,25,3.30
2017,11,15,05,26,3.20
2017,11,15,05,27,3.20
2017,11,15,05,28,3.20
2017,11,15,05,29,3.20
2017,11,15,05,30,3.20
2017,11,15,05,31,3.20
2017,11,15,05,32,3.20
2017,11,15,05,33,3.20
2017,11,15,05,34,3.20
2017,11,15,05,35,3.10
2017,11,15,05,36,3.10
2017,11,15,05,37,3.10
2017,11,15,05,38,3.10
2017,11,15,05,39,3.10
2017,11,15,05,40,3.10
2017,11,15,05,41,3.10
2017,11,15,05,42,3.00
2017,11,15,05,43,3.00
2017,11,15,05,44,3.00
2017,11,15,05,45,3.00
2017,11,15,05,46,3.00
2017,11,15,05,47,3.00
2017,11,15,05,48,3.00
2017,11,15,05,49,2.90
2017,11,15,05,50,2.90
2017,11,15,05,51,2.90
2017,11,15,05,52,2.90
2017,11,15,05,53,2.90
2017,11,15,05,54,2.90
2017,11,15,05,55,2.90
2017,11,15,05,56,2.90
2017,11,15,05,57,2.90
2017,11,15,05,58,2.90
2017,11,15,05,59,3.00
2017,11,15,06,00,3.00
2017,11,15,06,01,3.00
2017,11,15,06,02,3.00
2017,11,15,06,03,3.00
2017,11,15,06,04,3.00
2017,11,15,06,05,3.00
2017,11,15,06,06,3.00
2017,11,15,06,07,3.10
2017,11,15,06,08,3.10
2017,11,15,06,09,3.10
2017,11,15,06,10,3.10
2017,11,15,06,11,3.10
2017,11,15,06,12,3.10
2017,11,15,06,13,3.10
2017,11,15,06,14,3.10
2017,11,15,06,15,3.10
2017,11,15,06,16,3.10
2017,11,15,06,17,3.00
2017,11,15,06,18,3.00
2017,11,15,06,19,3.00
2017,11,15,06,20,3.00
2017,11,15,06,21,3.00
2017,11,15,06,22,3.00
2017,11,15,06,23,3.00
2017,11,15,06,24,3.00
2017,11,15,06,25,3.00
2017,11,15,06,26,3.00
2017,11,15,06,27,3.00
2017,11,15,06,28,2.90
2017,11,15,06,29,2.90
2017,11,15,06,30,2.90
2017,11,15,06,31,2.90
2017,11,15,06,32,2.90
2017,11,15,06,33,2.90
2017,11,15,06,34,2.90
2017,11,15,06,35,2.90
2017,11,15,06,36,2.90
2017,11,15,06,37,2.90
2017,11,15,06,38,2.90
2017,11,15,06,39,2.90
2017,11,15,06,40,2.90
2017,11,15,06,41,2.90
2017,11,15,06,42,2.90
2017,11,15,06,43,2.90
2017,11,15,06,44,2.90
2017,11,15,06,45,2.90
2017,11,15,06,46,2.90
2017,11,15,06,47,2.90
2017,11,15,06,48,3.00
2017,11,15,06,49,3.00
2017,11,15,06,50,3.00
2017,11,15,06,51,3.00
2017,11,15,06,52,3.00
2017,11,15,06,53,3.00
2017,11,15,06,54,3.00
2017,11,15,06,55,3.00
2017,11,15,06,56,3.00
2017,11,15,06,57,3.00
2017,11,15,06,58,3.00
2017,11,15,06,59,2.90
2017,11,15,07,00,2.90
2017,11,15,07,01,2.90
2017,11,15,07,02,2.90
2017,11,15,07,03,2.90
2017,11,15,07,04,2.90
2017,11,15,07,05,2.90
2017,11,15,07,06,2.90
2017,11,15,07,07,2.90
2017,11,15,07,08,2.90
2017,11,15,07,09,2.90
2017,11,15,07,10,2.90
2017,11,15,07,11,2.90
2017,11,15,07,12,2.90
2017,11,15,07,13,2.90
2017,11,15,07,14,3.00
2017,11,15,07,15,3.00
2017,11,15,07,16,3.00
2017,11,15,07,17,3.00
2017,11,15,07,18,3.00
2017,11,15,07,19,3.00
2017,11,15,07,20,3.10
2017,11,15,07,21,3.10
2017,11,15,07,22,3.10
2017,11,15,07,23,3.10
2017,11,15,07,24,3.10
2017,11,15,07,25,3.10
2017,11,15,07,26,3.10
2017,11,15,07,27,3.10
2017,11,15,07,28,3.10
2017,11,15,07,29,3.10
2017,11,15,07,30,3.10
2017,11,15,07,31,3.10
2017,11,15,07,32,3.10
2017,11,15,07,33,3.10
2017,11,15,07,34,3.10
2017,11,15,07,35,3.10
2017,11,15,07,36,3.10
2017,11,15,07,37,3.10
2017,11,15,07,38,3.10
2017,11,15,07,39,3.10
2017,11,15,07,40,3.20
2017,11,15,07,41,3.20
2017,11,15,07,42,3.20
2017,11,15,07,43,3.20
2017,11,15,07,44,3.20
2017,11,15,07,45,3.20
2017,11,15,07,46,3.20
2017,11,15,07,47,3.20
2017,11,15,07,48,3.20
2017,11,15,07,49,3.20
2017,11,15,07,50,3.20
2017,11,15,07,51,3.20
2017,11,15,07,52,3.20
2017,11,15,07,53,3.20
2017,11,15,07,54,3.20
2017,11,15,07,55,3.20
2017,11,15,07,56,3.20
2017,11,15,07,57,3.20
2017,11,15,07,58,3.20
2017,11,15,07,59,3.20
2017,11,15,08,00,3.20
2017,11,15,08,01,3.20
2017,11,15,08,02,3.20
2017,11,15,08,03,3.20
2017,11,15,08,04,3.20
2017,11,15,08,05,3.20
2017,11,15,08,06,3.20
2017,11,15,08,07,3.20
2017,11,15,08,08,3.20
2017,11,15,08,09,3.30
2017,11,15,08,10,3.30
2017,11,15,08,11,3.30
2017,11,15,08,12,3.30
2017,11,15,08,13,3.30
2017,11,15,08,14,3.40
2017,11,15,08,15,3.40
2017,11,15,08,16,3.40
2017,11,15,08,17,3.50
2017,11,15,08,18,3.50
2017,11,15,08,19,3.60
2017,11,15,08,20,3.60
2017,11,15,08,21,3.60
2017,11,15,08,22,3.60
2017,11,15,08,23,3.70
2017,11,15,08,24,3.70
2017,11,15,08,25,3.70
2017,11,15,08,26,3.70
2017,11,15,08,27,3.70
2017,11,15,08,28,3.70
2017,11,15,08,29,3.70
2017,11,15,08,30,3.80
2017,11,15,08,31,3.80
2017,11,15,08,32,3.80
2017,11,15,08,33,3.80
2017,11,15,08,34,3.80
2017,11,15,08,35,3.80
2017,11,15,08,36,3.90
2017,11,15,08,37,3.90
2017,11,15,08,38,3.90
2017,11,15,08,39,3.90
2017,11,15,08,40,3.90
2017,11,15,08,41,3.90
2017,11,15,08,42,3.90
2017,11,15,08,43,4.00
2017,11,15,08,44,4.00
2017,11,15,08,45,4.00
2017,11,15,08,46,4.00
2017,11,15,08,47,4.00
2017,11,15,08,48,3.90
2017,11,15,08,49,3.90
2017,11,15,08,50,3.90
2017,11,15,08,51,3.90
2017,11,15,08,52,3.90
2017,11,15,08,53,3.90
2017,11,15,08,54,3.90
2017,11,15,08,55,3.90
2017,11,15,08,56,3.90
2017,11,15,08,57,3.90
2017,11,15,08,58,3.90
2017,11,15,08,59,3.90
2017,11,15,09,00,3.90
2017,11,15,09,01,3.90
2017,11,15,09,02,3.90
2017,11,15,09,03,3.90
2017,11,15,09,04,3.90
2017,11,15,09,05,4.00
2017,11,15,09,06,4.10
2017,11,15,09,07,4.10
2017,11,15,09,08,4.10
2017,11,15,09,09,4.20
2017,11,15,09,10,4.20
2017,11,15,09,11,4.20
2017,11,15,09,12,4.30
2017,11,15,09,13,4.30
2017,11,15,09,14,4.30
2017,11,15,09,15,4.30
2017,11,15,09,16,4.30
2017,11,15,09,17,4.40
2017,11,15,09,18,4.40
2017,11,15,09,19,4.40
2017,11,15,09,20,4.50
2017,11,15,09,21,4.50
2017,11,15,09,22,4.50
2017,11,15,09,23,4.50
2017,11,15,09,24,4.50
2017,11,15,09,25,4.50
2017,11,15,09,26,4.60
2017,11,15,09,27,4.60
2017,11,15,09,28,4.60
2017,11,15,09,29,4.60
2017,11,15,09,30,4.60
2017,11,15,09,31,4.70
2017,11,15,09,32,4.70
2017,11,15,09,33,4.70
2017,11,15,09,34,4.70
2017,11,15,09,35,4.80
2017,11,15,09,36,4.80
2017,11,15,09,37,4.80
2017,11,15,09,38,4.80
2017,11,15,09,39,4.80
2017,11,15,09,40,4.90
2017,11,15,09,41,4.90
2017,11,15,09,42,4.90
2017,11,15,09,43,4.90
2017,11,15,09,44,4.90
2017,11,15,09,45,4.90
2017,11,15,09,46,5.00
2017,11,15,09,47,5.00
2017,11,15,09,48,5.00
2017,11,15,09,49,5.00
2017,11,15,09,50,5.00
2017,11,15,09,51,5.00
2017,11,15,09,52,5.00
2017,11,15,09,53,5.10
2017,11,15,09,54,5.10
2017,11,15,09,55,5.10
2017,11,15,09,56,5.10
2017,11,15,09,57,5.10
2017,11,15,09,58,5.10
2017,11,15,09,59,5.10
2017,11,15,10,00,5.10
2017,11,15,10,01,5.10
2017,11,15,10,02,5.10
2017,11,15,10,03,5.10
2017,11,15,10,04,5.10
2017,11,15,10,05,5.10
2017,11,15,10,06,5.10
2017,11,15,10,07,5.10
2017,11,15,10,08,5.00
2017,11,15,10,09,5.10
2017,11,15,10,10,5.10
2017,11,15,10,11,5.10
2017,11,15,10,12,5.10
2017,11,15,10,13,5.10
2017,11,15,10,14,5.10
2017,11,15,10,15,5.10
2017,11,15,10,16,5.10
2017,11,15,10,17,5.10
2017,11,15,10,18,5.10
2017,11,15,10,19,5.10
2017,11,15,10,20,5.10
2017,11,15,10,21,5.10
2017,11,15,10,22,5.10
2017,11,15,10,23,5.10
2017,11,15,10,24,5.10
2017,11,15,10,25,5.10
2017,11,15,10,26,5.10
2017,11,15,10,27,5.10
2017,11,15,10,28,5.10
2017,11,15,10,29,5.10
2017,11,15,10,30,5.10
2017,11,15,10,31,5.10
2017,11,15,10,32,5.10
2017,11,15,10,33,5.10
2017,11,15,10,34,5.10
2017,11,15,10,35,5.10
2017,11,15,10,36,5.10
2017,11,15,10,37,5.00
2017,11,15,10,38,5.00
2017,11,15,10,39,5.00
2017,11,15,10,40,5.00
2017,11,15,10,41,4.90
2017,11,15,10,42,4.90
2017,11,15,10,43,4.90
2017,11,15,10,44,4.90
2017,11,15,10,45,4.90
2017,11,15,10,46,4.90
2017,11,15,10,47,4.90
2017,11,15,10,48,4.90
2017,11,15,10,49,4.80
2017,11,15,10,50,4.80
2017,11,15,10,51,4.80
2017,11,15,10,52,4.80
2017,11,15,10,53,4.80
2017,11,15,10,54,4.80
2017,11,15,10,55,4.80
2017,11,15,10,56,4.80
2017,11,15,10,57,4.80
2017,11,15,10,58,4.80
2017,11,15,10,59,4.80
2017,11,15,11,00,4.80
2017,11,15,11,01,4.80
2017,11,15,11,02,4.80
2017,11,15,11,03,4.80
2017,11,15,11,04,4.80
2017,11,15,11,05,4.80
2017,11,15,11,06,4.80
2017,11,15,11,07,4.80
2017,11,15,11,08,4.80
2017,11,15,11,09,4.80
2017,11,15,11,10,4.70
2017,11,15,11,11,4.70
2017,11,15,11,12,4.70
2017,11,15,11,13,4.70
2017,11,15,11,14,4.70
2017,11,15,11,15,4.70
2017,11,15,11,16,4.70
2017,11,15,11,17,4.70
2017,11,15,11,18,4.70
2017,11,15,11,19,4.70
2017,11,15,11,20,4.70
2017,11,15,11,21,4.70
2017,11,15,11,22,4.70
2017,11,15,11,23,4.70
2017,11,15,11,24,4.70
2017,11,15,11,25,4.70
2017,11,15,11,26,4.70
2017,11,15,11,27,4.70
2017,11,15,11,28,4.70
2017,11,15,11,29,4.70
2017,11,15,11,30,4.70
2017,11,15,11,31,4.70
2017,11,15,11,32,4.70
2017,11,15,11,33,4.70
2017,11,15,11,34,4.70
2017,11,15,11,35,4.70
2017,11,15,11,36,4.70
2017,11,15,11,37,4.70
2017,11,15,11,38,4.70
2017,11,15,11,39,4.70
2017,11,15,11,40,4.70
2017,11,15,11,41,4.70
2017,11,15,11,42,4.70
2017,11,15,11,43,4.70
2017,11,15,11,44,4.70
2017,11,15,11,45,4.70
2017,11,15,11,46,4.70
2017,11,15,11,47,4.70
2017,11,15,11,48,4.70
2017,11,15,11,49,4.70
2017,11,15,11,50,4.70
2017,11,15,11,51,4.80
2017,11,15,11,52,4.80
2017,11,15,11,53,4.80
2017,11,15,11,54,4.80
2017,11,15,11,55,4.80
2017,11,15,11,56,4.80
2017,11,15,11,57,4.90
2017,11,15,11,58,4.90
2017,11,15,11,59,4.90
2017,11,15,12,00,4.90
2017,11,15,12,01,4.90
2017,11,15,12,02,4.90
2017,11,15,12,03,5.00
2017,11,15,12,04,5.00
2017,11,15,12,05,5.00
2017,11,15,12,06,5.00
2017,11,15,12,07,5.10
2017,11,15,12,08,5.10
2017,11,15,12,09,5.10
2017,11,15,12,10,5.10
2017,11,15,12,11,5.10
2017,11,15,12,12,5.10
2017,11,15,12,13,5.20
2017,11,15,12,14,5.20
2017,11,15,12,15,5.20
2017,11,15,12,16,5.20
2017,11,15,12,17,5.20
2017,11,15,12,18,5.20
2017,11,15,12,19,5.20
2017,11,15,12,20,5.20
2017,11,15,12,21,5.30
2017,11,15,12,22,5.30
2017,11,15,12,23,5.30
2017,11,15,12,24,5.30
2017,11,15,12,25,5.30
2017,11,15,12,26,5.30
2017,11,15,12,27,5.30
2017,11,15,12,28,5.30
2017,11,15,12,29,5.30
2017,11,15,12,30,5.30
2017,11,15,12,31,5.30
2017,11,15,12,32,5.30
2017,11,15,12,33,5.40
2017,11,15,12,34,5.40
2017,11,15,12,35,5.40
2017,11,15,12,36,5.40
2017,11,15,12,37,5.40
2017,11,15,12,38,5.50
2017,11,15,12,39,5.50
2017,11,15,12,40,5.50
2017,11,15,12,41,5.50
2017,11,15,12,42,5.50
2017,11,15,12,43,5.50
2017,11,15,12,44,5.50
2017,11,15,12,45,5.50
2017,11,15,12,46,5.50
2017,11,15,12,47,5.40
2017,11,15,12,48,5.50
2017,11,15,12,49,5.50
2017,11,15,12,50,5.50
2017,11,15,12,51,5.50
2017,11,15,12,52,5.50
2017,11,15,12,53,5.50
2017,11,15,12,54,5.50
2017,11,15,12,55,5.50
2017,11,15,12,56,5.50
2017,11,15,12,57,5.50
2017,11,15,12,58,5.50
2017,11,15,12,59,5.50
2017,11,15,13,00,5.50
2017,11,15,13,01,5.50
2017,11,15,13,02,5.40
2017,11,15,13,03,5.40
2017,11,15,13,04,5.40
2017,11,15,13,05,5.40
2017,11,15,13,06,5.40
2017,11,15,13,07,5.40
2017,11,15,13,08,5.40
2017,11,15,13,09,5.40
2017,11,15,13,10,5.50
2017,11,15,13,11,5.50
2017,11,15,13,12,5.50
2017,11,15,13,13,5.50
2017,11,15,13,14,5.50
2017,11,15,13,15,5.50
2017,11,15,13,16,5.50
2017,11,15,13,17,5.50
2017,11,15,13,18,5.50
2017,11,15,13,19,5.50
2017,11,15,13,20,5.50
2017,11,15,13,21,5.50
2017,11,15,13,22,5.50
2017,11,15,13,23,5.50
2017,11,15,13,24,5.50
2017,11,15,13,25,5.50
2017,11,15,13,26,5.50
2017,11,15,13,27,5.50
2017,11,15,13,28,5.50
2017,11,15,13,29,5.50
2017,11,15,13,30,5.50
2017,11,15,13,31,5.50
2017,11,15,13,32,5.50
2017,11,15,13,33,5.50
2017,11,15,13,34,5.50
2017,11,15,13,35,5.60
2017,11,15,13,36,5.60
2017,11,15,13,37,5.60
2017,11,15,13,38,5.60
2017,11,15,13,39,5.60
2017,11,15,13,40,5.60
2017,11,15,13,41,5.60
2017,11,15,13,42,5.60
2017,11,15,13,43,5.60
2017,11,15,13,44,5.60
2017,11,15,13,45,5.60
2017,11,15,13,46,5.70
2017,11,15,13,47,5.70
2017,11,15,13,48,5.70
2017,11,15,13,49,5.70
2017,11,15,13,50,5.70
2017,11,15,13,51,5.70
2017,11,15,13,52,5.70
2017,11,15,13,53,5.70
2017,11,15,13,54,5.70
2017,11,15,13,55,5.70
2017,11,15,13,56,5.70
2017,11,15,13,57,5.70
2017,11,15,13,58,5.70
2017,11,15,13,59,5.70
2017,11,15,14,00,5.70
2017,11,15,14,01,5.80
2017,11,15,14,02,5.80
2017,11,15,14,03,5.80
2017,11,15,14,04,5.80
2017,11,15,14,05,5.80
2017,11,15,14,06,5.80
2017,11,15,14,07,5.80
2017,11,15,14,08,5.80
2017,11,15,14,09,5.80
2017,11,15,14,10,5.80
2017,11,15,14,11,5.80
2017,11,15,14,12,5.80
2017,11,15,14,13,5.80
2017,11,15,14,14,5.70
2017,11,15,14,15,5.70
2017,11,15,14,16,5.70
2017,11,15,14,17,5.60
2017,11,15,14,18,5.50
2017,11,15,14,19,5.40
2017,11,15,14,20,5.40
2017,11,15,14,21,5.40
2017,11,15,14,22,5.30
2017,11,15,14,23,5.30
2017,11,15,14,24,5.30
2017,11,15,14,25,5.30
2017,11,15,14,26,5.30
2017,11,15,14,27,5.30
2017,11,15,14,28,5.20
2017,11,15,14,29,5.20
2017,11,15,14,30,5.20
2017,11,15,14,31,5.20
2017,11,15,14,32,5.20
2017,11,15,14,33,5.20
2017,11,15,14,34,5.20
2017,11,15,14,35,5.20
2017,11,15,14,36,5.20
2017,11,15,14,37,5.20
2017,11,15,14,38,5.10
2017,11,15,14,39,5.10
2017,11,15,14,40,5.10
2017,11,15,14,41,5.10
2017,11,15,14,42,5.10
2017,11,15,14,43,5.10
2017,11,15,14,44,5.10
2017,11,15,14,45,5.10
2017,11,15,14,46,5.10
2017,11,15,14,47,5.10
2017,11,15,14,48,5.10
2017,11,15,14,49,5.10
2017,11,15,14,50,5.10
2017,11,15,14,51,5.10
2017,11,15,14,52,5.10
2017,11,15,14,53,5.10
2017,11,15,14,54,5.10
2017,11,15,14,55,5.10
2017,11,15,14,56,5.10
2017,11,15,14,57,5.10
2017,11,15,14,58,5.10
2017,11,15,14,59,5.10
2017,11,15,15,00,5.10
2017,11,15,15,01,5.10
2017,11,15,15,02,5.10
2017,11,15,15,03,5.20
2017,11,15,15,04,5.20
2017,11,15,15,05,5.20
2017,11,15,15,06,5.20
2017,11,15,15,07,5.20
2017,11,15,15,08,5.20
2017,11,15,15,09,5.20
2017,11,15,15,10,5.20
2017,11,15,15,11,5.20
2017,11,15,15,12,5.20
2017,11,15,15,13,5.20
2017,11,15,15,14,5.20
2017,11,15,15,15,5.20
2017,11,15,15,16,5.20
2017,11,15,15,17,5.20
2017,11,15,15,18,5.20
2017,11,15,15,19,5.20
2017,11,15,15,20,5.20
2017,11,15,15,21,5.20
2017,11,15,15,22,5.20
2017,11,15,15,23,5.20
2017,11,15,15,24,5.30
2017,11,15,15,25,5.30
2017,11,15,15,26,5.30
2017,11,15,15,27,5.30
2017,11,15,15,28,5.30
2017,11,15,15,29,5.30
2017,11,15,15,30,5.30
2017,11,15,15,31,5.30
2017,11,15,15,32,5.30
2017,11,15,15,33,5.30
2017,11,15,15,34,5.30
2017,11,15,15,35,5.30
2017,11,15,15,36,5.30
2017,11,15,15,37,5.30
2017,11,15,15,38,5.30
2017,11,15,15,39,5.30
2017,11,15,15,40,5.30
2017,11,15,15,41,5.30
2017,11,15,15,42,5.30
2017,11,15,15,43,5.30
2017,11,15,15,44,5.30
2017,11,15,15,45,5.30
2017,11,15,15,46,5.30
2017,11,15,15,47,5.30
2017,11,15,15,48,5.30
2017,11,15,15,49,5.30
2017,11,15,15,50,5.30
2017,11,15,15,51,5.30
2017,11,15,15,52,5.30
2017,11,15,15,53,5.30
2017,11,15,15,54,5.30
2017,11,15,15,55,5.30
2017,11,15,15,56,5.20
2017,11,15,15,57,5.20
2017,11,15,15,58,5.20
2017,11,15,15,59,5.20
2017,11,15,16,00,5.20
2017,11,15,16,01,5.30
2017,11,15,16,02,5.30
2017,11,15,16,03,5.30
2017,11,15,16,04,5.30
2017,11,15,16,05,5.30
2017,11,15,16,06,5.30
2017,11,15,16,07,5.30
2017,11,15,16,08,5.30
2017,11,15,16,09,5.30
2017,11,15,16,10,5.20
2017,11,15,16,11,5.20
2017,11,15,16,12,5.20
2017,11,15,16,13,5.20
2017,11,15,16,14,5.20
2017,11,15,16,15,5.20
2017,11,15,16,16,5.20
2017,11,15,16,17,5.20
2017,11,15,16,18,5.20
2017,11,15,16,19,5.20
2017,11,15,16,20,5.20
2017,11,15,16,21,5.20
2017,11,15,16,22,5.20
2017,11,15,16,23,5.20
2017,11,15,16,24,5.20
2017,11,15,16,25,5.20
2017,11,15,16,26,5.20
2017,11,15,16,27,5.10
2017,11,15,16,28,5.10
2017,11,15,16,29,5.10
2017,11,15,16,30,5.10
2017,11,15,16,31,5.10
2017,11,15,16,32,5.10
2017,11,15,16,33,5.10
2017,11,15,16,34,5.10
2017,11,15,16,35,5.10
2017,11,15,16,36,5.10
2017,11,15,16,37,5.10
2017,11,15,16,38,5.10
2017,11,15,16,39,5.10
2017,11,15,16,40,5.10
2017,11,15,16,41,5.10
2017,11,15,16,42,5.10
2017,11,15,16,43,5.10
2017,11,15,16,44,5.10
2017,11,15,16,45,5.10
2017,11,15,16,46,5.10
2017,11,15,16,47,5.10
2017,11,15,16,48,5.10
2017,11,15,16,49,5.10
2017,11,15,16,50,5.00
2017,11,15,16,51,5.10
2017,11,15,16,52,5.00
2017,11,15,16,53,5.00
2017,11,15,16,54,5.00
2017,11,15,16,55,5.00
2017,11,15,16,56,5.00
2017,11,15,16,57,5.00
2017,11,15,16,58,5.00
2017,11,15,16,59,5.00
2017,11,15,17,00,5.00
2017,11,15,17,01,5.00
2017,11,15,17,02,5.00
2017,11,15,17,03,5.00
2017,11,15,17,04,5.00
2017,11,15,17,05,5.00
2017,11,15,17,06,5.00
2017,11,15,17,07,5.00
2017,11,15,17,08,5.00
2017,11,15,17,09,5.00
2017,11,15,17,10,5.00
2017,11,15,17,11,5.00
2017,11,15,17,12,5.00
2017,11,15,17,13,5.00
2017,11,15,17,14,5.00
2017,11,15,17,15,5.00
2017,11,15,17,16,5.00
2017,11,15,17,17,5.00
2017,11,15,17,18,5.00
2017,11,15,17,19,5.00
2017,11,15,17,20,5.00
2017,11,15,17,21,5.00
2017,11,15,17,22,5.00
2017,11,15,17,23,5.00
2017,11,15,17,24,5.00
2017,11,15,17,25,5.00
2017,11,15,17,26,5.00
2017,11,15,17,27,5.00
2017,11,15,17,28,5.00
2017,11,15,17,29,5.00
2017,11,15,17,30,5.00
2017,11,15,17,31,5.00
2017,11,15,17,32,5.00
2017,11,15,17,33,5.00
2017,11,15,17,34,4.90
2017,11,15,17,35,4.90
2017,11,15,17,36,4.90
2017,11,15,17,37,4.80
2017,11,15,17,38,4.80
2017,11,15,17,39,4.70
2017,11,15,17,40,4.70
2017,11,15,17,41,4.60
2017,11,15,17,42,4.60
2017,11,15,17,43,4.50
2017,11,15,17,44,4.50
2017,11,15,17,45,4.50
2017,11,15,17,46,4.40
2017,11,15,17,47,4.40
2017,11,15,17,48,4.40
2017,11,15,17,49,4.40
2017,11,15,17,50,4.40
2017,11,15,17,51,4.30
2017,11,15,17,52,4.30
2017,11,15,17,53,4.30
2017,11,15,17,54,4.30
2017,11,15,17,55,4.30
2017,11,15,17,56,4.30
2017,11,15,17,57,4.30
2017,11,15,17,58,4.30
2017,11,15,17,59,4.30
2017,11,15,18,00,4.30
2017,11,15,18,01,4.20
2017,11,15,18,02,4.20
2017,11,15,18,03,4.20
2017,11,15,18,04,4.20
2017,11,15,18,05,4.20
2017,11,15,18,06,4.20
2017,11,15,18,07,4.20
2017,11,15,18,08,4.20
2017,11,15,18,09,4.20
2017,11,15,18,10,4.20
2017,11,15,18,11,4.20
2017,11,15,18,12,4.20
2017,11,15,18,13,4.20
2017,11,15,18,14,4.30
2017,11,15,18,15,4.30
2017,11,15,18,16,4.30
2017,11,15,18,17,4.30
2017,11,15,18,18,4.30
2017,11,15,18,19,4.40
2017,11,15,18,20,4.40
2017,11,15,18,21,4.40
2017,11,15,18,22,4.40
2017,11,15,18,23,4.40
2017,11,15,18,24,4.50
2017,11,15,18,25,4.40
2017,11,15,18,26,4.50
2017,11,15,18,27,4.50
2017,11,15,18,28,4.50
2017,11,15,18,29,4.50
2017,11,15,18,30,4.50
2017,11,15,18,31,4.50
2017,11,15,18,32,4.50
2017,11,15,18,33,4.40
2017,11,15,18,34,4.40
2017,11,15,18,35,4.40
2017,11,15,18,36,4.40
2017,11,15,18,37,4.30
2017,11,15,18,38,4.30
2017,11,15,18,39,4.30
2017,11,15,18,40,4.30
2017,11,15,18,41,4.30
2017,11,15,18,42,4.30
2017,11,15,18,43,4.30
2017,11,15,18,44,4.30
2017,11,15,18,45,4.30
2017,11,15,18,46,4.30
2017,11,15,18,47,4.30
2017,11,15,18,48,4.30
2017,11,15,18,49,4.30
2017,11,15,18,50,4.30
2017,11,15,18,51,4.30
2017,11,15,18,52,4.20
2017,11,15,18,53,4.30
2017,11,15,18,54,4.20
2017,11,15,18,55,4.20
2017,11,15,18,56,4.20
2017,11,15,18,57,4.20
2017,11,15,18,58,4.20
2017,11,15,18,59,4.20
2017,11,15,19,00,4.20
2017,11,15,19,01,4.20
2017,11,15,19,02,4.20
2017,11,15,19,03,4.20
2017,11,15,19,04,4.10
2017,11,15,19,05,4.20
2017,11,15,19,06,4.20
2017,11,15,19,07,4.20
2017,11,15,19,08,4.20
2017,11,15,19,09,4.20
2017,11,15,19,10,4.20
2017,11,15,19,11,4.20
2017,11,15,19,12,4.20
2017,11,15,19,13,4.20
2017,11,15,19,14,4.20
2017,11,15,19,15,4.20
2017,11,15,19,16,4.20
2017,11,15,19,17,4.20
2017,11,15,19,18,4.20
2017,11,15,19,19,4.20
2017,11,15,19,20,4.20
2017,11,15,19,21,4.20
2017,11,15,19,22,4.20
2017,11,15,19,23,4.20
2017,11,15,19,24,4.20
2017,11,15,19,25,4.20
2017,11,15,19,26,4.20
2017,11,15,19,27,4.20
2017,11,15,19,28,4.20
2017,11,15,19,29,4.20
2017,11,15,19,30,4.20
2017,11,15,19,31,4.20
2017,11,15,19,32,4.20
2017,11,15,19,33,4.20
2017,11,15,19,34,4.20
2017,11,15,19,35,4.20
2017,11,15,19,36,4.20
2017,11,15,19,37,4.20
2017,11,15,19,38,4.20
2017,11,15,19,39,4.20
2017,11,15,19,40,4.20
2017,11,15,19,41,4.20
2017,11,15,19,42,4.20
2017,11,15,19,43,4.20
2017,11,15,19,44,4.20
2017,11,15,19,45,4.20
2017,11,15,19,46,4.20
2017,11,15,19,47,4.20
2017,11,15,19,48,4.20
2017,11,15,19,49,4.20
2017,11,15,19,50,4.20
2017,11,15,19,51,4.20
2017,11,15,19,52,4.20
2017,11,15,19,53,4.20
2017,11,15,19,54,4.10
2017,11,15,19,55,4.10
2017,11,15,19,56,4.10
2017,11,15,19,57,4.10
2017,11,15,19,58,4.10
2017,11,15,19,59,4.10
2017,11,15,20,00,4.10
2017,11,15,20,01,4.00
2017,11,15,20,02,4.00
2017,11,15,20,03,4.00
2017,11,15,20,04,4.00
2017,11,15,20,05,4.00
2017,11,15,20,06,3.90
2017,11,15,20,07,3.90
2017,11,15,20,08,3.90
2017,11,15,20,09,4.00
2017,11,15,20,10,4.00
2017,11,15,20,11,4.00
2017,11,15,20,12,4.00
2017,11,15,20,13,4.00
2017,11,15,20,14,4.00
2017,11,15,20,15,4.00
2017,11,15,20,16,4.00
2017,11,15,20,17,4.00
2017,11,15,20,18,4.00
2017,11,15,20,19,4.00
2017,11,15,20,20,4.00
2017,11,15,20,21,4.00
2017,11,15,20,22,4.10
2017,11,15,20,23,4.10
2017,11,15,20,24,4.10
2017,11,15,20,25,4.10
2017,11,15,20,26,4.10
2017,11,15,20,27,4.10
2017,11,15,20,28,4.10
2017,11,15,20,29,4.10
2017,11,15,20,30,4.00
2017,11,15,20,31,4.00
2017,11,15,20,32,4.00
2017,11,15,20,33,4.00
2017,11,15,20,34,4.00
2017,11,15,20,35,3.90
2017,11,15,20,36,3.90
2017,11,15,20,37,3.90
2017,11,15,20,38,3.90
2017,11,15,20,39,3.90
2017,11,15,20,40,3.90
2017,11,15,20,41,3.90
2017,11,15,20,42,3.90
2017,11,15,20,43,3.90
2017,11,15,20,44,3.90
2017,11,15,20,45,3.90
2017,11,15,20,46,3.90
2017,11,15,20,47,3.90
2017,11,15,20,48,3.90
2017,11,15,20,49,3.90
2017,11,15,20,50,3.90
2017,11,15,20,51,3.90
2017,11,15,20,52,3.90
2017,11,15,20,53,3.90
2017,11,15,20,54,3.90
2017,11,15,20,55,3.90
2017,11,15,20,56,3.90
2017,11,15,20,57,3.90
2017,11,15,20,58,3.90
2017,11,15,20,59,3.90
2017,11,15,21,00,3.90
2017,11,15,21,01,3.90
2017,11,15,21,02,3.90
2017,11,15,21,03,3.90
2017,11,15,21,04,3.90
2017,11,15,21,05,3.90
2017,11,15,21,06,3.90
2017,11,15,21,07,3.90
2017,11,15,21,08,3.90
2017,11,15,21,09,3.80
2017,11,15,21,10,3.80
2017,11,15,21,11,3.80